User: anonymous   Login
Location: Unspecified
(0.0000°N, 0.0000°E)
Time: 20:18:25
(UTC+00:00)
Language:

OBJECT F - Orbit

View from above orbital plane
View from above orbital plane
View from above satellite
View from above satellite

Ground track
Ground track

The orbit is defined by the following mean orbital elements,

1 63987U          26145.61626691 +.00000000 +00000-0 +63551-3 0 00004
2 63987  97.3641 218.9173 0010302  44.6811 315.5252 15.19878067    01
Epoch (UTC): 25 May 2026 14:47:25
Eccentricity: 0.0010302
inclination: 97.3641°
perigee height: 499 km
apogee height: 513 km
right ascension of ascending node: 218.9173°
argument of perigee: 44.6811°
revolutions per day: 15.19878067
mean anomaly at epoch: 315.5252°

The dashed part of the orbit path shows where the satellite is in the earth's shadow,  

DLR